Temperature
12 12 12 12 12 12 12 12 13 14 15 14 13 13 12 12 12 12 12 12 13 13 14 14 14 14 14 14 14 14 14 15 15 15 15 15 15 15
12 12 12 12 12 11 12 12 12 12 13 14 13 13 12 12 12 12 12 12 13 13 13 13 13 14 14 14 14 14 14 14 14 14 15 15 15 15
12 11 11 11 12 12 12 12 12 12 12 13 13 12 11 11 11 11 11 12 12 12 13 13 13 13 13 13 13 14 14 14 14 14 14 14 15 15
12 12 12 12 11 12 11 12 12 11 11 12 12 12 11 11 11 11 11 12 12 12 12 12 13 13 13 13 13 13 13 14 14 14 14 14 14 14
12 12 12 12 12 12 11 12 12 12 11 11 12 12 11 11 11 11 11 11 12 12 12 12 12 12 13 13 13 13 13 13 13 14 14 14 14 14
12 12 12 12 12 12 12 11 11 11 11 11 12 12 12 11 11 11 12 12 11 12 12 12 12 12 12 12 13 13 13 13 13 13 13 14 14 14
13 13 12 12 12 12 12 12 11 11 11 12 12 12 12 12 12 12 12 11 12 11 11 12 12 12 12 12 12 12 12 12 13 13 13 13 13 14
13 13 13 13 13 13 13 12 12 11 11 11 12 12 11 11 11 11 11 11 11 12 11 11 12 12 12 12 12 12 12 12 12 12 12 13 13 13
13 13 13 13 12 12 12 12 12 12 12 11 11 11 11 11 10 10 10 10 10 11 11 11 11 11 11 12 11 11 11 12 12 12 12 12 13 13
13 13 13 13 12 12 12 12 12 11 11 11 11 11 11 10 10 10 10 10 10 10 10 10 11 11 11 11 11 11 11 11 12 12 12 12 12 12
13 13 13 13 13 12 12 12 11 11 11 11 11 11 11 11 10 10 10 10 10 11 11 10 11 11 11 11 11 11 11 11 12 12 12 12 12 12
13 13 13 13 13 12 12 12 11 11 11 11 11 11 11 11 10 10 9 10 10 11 11 10 10 11 11 11 11 11 11 11 11 11 12 12 12 12
13 13 13 13 13 12 12 12 12 11 11 11 11 10 10 10 10 10 10 9 10 10 11 10 10 10 10 11 11 11 11 11 11 11 11 11 11 11
12 12 13 12 12 12 12 12 12 11 11 11 11 11 11 11 11 10 10 9 9 9 10 10 9 9 10 10 10 11 11 11 10 10 11 11 11 11
12 12 12 12 12 11 11 11 11 11 10 11 11 11 11 11 11 10 10 9 9 9 9 9 9 9 9 9 10 10 11 11 11 10 10 10 11 11
11 11 11 11 11 11 11 11 11 11 11 11 11 11 11 11 10 10 10 10 9 9 9 9 9 9 9 9 9 10 10 10 10 10 10 10 10 11
10 10 10 11 11 11 11 11 11 11 10 10 11 11 11 11 10 10 10 10 9 10 10 10 9 9 9 9 9 9 10 10 10 10 10 10 10 10
10 10 10 11 11 11 11 11 11 11 10 10 10 10 10 10 10 10 10 9 9 9 10 10 9 9 9 8 9 9 9 9 10 10 10 10 10 10
9 9 10 10 10 10 10 11 11 11 11 10 10 10 10 10 10 10 10 9 9 9 9 9 9 9 9 9 10 9 9 9 10 10 10 10 10 10
9 9 10 10 10 10 10 10 10 10 10 10 10 9 9 9 9 9 9 9 9 9 9 9 9 9 9 9 10 10 10 9 9 9 10 10 10 10
9 9 9 9 9 9 9 9 9 9 9 9 9 9 9 9 9 9 9 9 8 8 8 9 9 9 8 8 8 9 10 9 9 9 9 9 10 10
8 8 8 8 8 8 9 9 9 9 9 9 9 9 9 9 9 9 9 8 8 8 8 9 9 8 8 8 8 9 9 9 9 9 9 9 9 10
8 7 7 8 8 8 8 8 8 8 8 8 8 8 8 8 8 8 8 8 8 8 8 8 8 8 8 8 8 8 9 9 9 9 9 9 9 9
Wind_Speed
5 5 5 3 4 4 4 5 6 7 6 2 3 2 4 6 4 8 8 3 5 7 7 7 7 9 10 11 13 15 18 19 20 22 23 24 27 28
5 5 5 5 4 5 5 5 6 7 8 6 5 6 6 9 6 8 10 8 12 11 10 9 9 10 11 12 13 14 16 18 20 21 23 24 25 27
7 7 7 7 6 6 6 6 7 7 9 9 8 7 7 9 9 10 11 11 11 13 11 11 12 12 12 13 13 14 15 16 18 20 22 24 25 27
8 8 8 7 8 8 7 8 7 7 9 11 10 9 9 9 9 10 11 12 12 9 11 12 14 15 15 16 16 16 16 16 17 18 20 22 24 26
9 9 9 9 9 8 8 9 8 8 8 10 11 9 9 9 9 10 11 10 13 13 13 17 18 17 17 17 18 18 18 18 18 19 19 20 22 24
10 10 10 11 11 10 9 10 9 10 10 10 11 10 9 9 8 10 10 9 9 11 11 11 14 17 19 19 19 19 20 19 19 20 20 20 21 22
11 12 12 11 10 10 10 10 9 10 10 10 10 10 9 8 9 9 10 9 10 10 10 10 11 12 15 20 23 22 20 19 19 20 21 21 21 22
12 12 12 12 14 15 15 14 13 13 12 12 11 11 11 10 9 9 10 11 11 8 9 11 10 11 11 14 13 16 18 18 19 20 21 21 22 23
13 13 12 12 12 13 15 18 18 19 18 15 15 15 13 11 11 12 11 12 12 11 10 12 12 12 12 14 11 13 16 18 20 20 21 21 22 23
15 15 15 14 14 13 14 15 15 16 17 17 16 16 15 12 11 12 13 13 14 13 12 14 13 13 13 13 14 17 19 20 21 21 21 21 22 22
16 16 16 16 15 13 15 16 17 16 16 19 19 17 16 14 12 12 13 13 14 12 11 12 13 13 13 13 14 19 21 22 22 22 22 21 21 20
14 15 17 18 16 15 16 17 18 17 15 13 15 17 18 18 18 16 15 14 14 14 11 11 12 12 13 12 12 11 14 19 23 23 23 22 20 15
14 14 13 16 19 18 18 17 18 16 15 15 14 15 14 14 14 16 16 15 15 15 12 10 12 12 13 12 12 11 11 11 12 16 21 23 21 17
14 14 13 9 14 17 16 18 17 14 15 15 15 15 14 14 13 14 15 16 16 17 16 14 13 13 14 15 14 12 12 11 12 12 12 15 21 23
14 16 15 12 12 14 18 19 16 15 15 16 16 16 15 14 13 11 14 15 17 19 20 19 17 15 15 16 16 14 13 12 12 12 13 13 12 12
14 15 16 18 17 17 15 14 15 16 17 17 17 16 14 13 13 13 13 13 14 15 17 20 18 18 17 17 16 16 15 14 13 12 12 13 13 13
12 13 14 15 15 15 15 15 15 16 17 17 17 15 15 14 14 13 13 13 14 14 14 12 15 16 18 17 16 16 16 15 15 14 13 14 14 14
11 15 16 17 17 17 16 15 15 15 16 16 16 16 15 15 14 13 13 14 14 14 14 13 11 11 13 14 16 18 16 16 15 14 14 15 15 14
12 15 16 16 16 16 15 15 15 14 13 14 15 15 15 14 14 13 13 13 14 14 14 13 12 13 14 16 15 18 17 15 15 15 14 15 15 14
13 15 15 15 15 15 15 15 14 13 13 13 14 14 14 14 14 14 13 14 14 14 13 13 13 14 15 15 14 12 17 17 15 15 14 14 14 14
12 13 13 14 14 14 13 13 13 13 13 13 13 14 14 13 13 13 13 14 14 13 14 14 13 14 13 12 13 15 14 17 16 15 14 13 14 14
12 12 12 13 12 12 12 12 12 12 13 13 13 13 13 12 13 14 13 13 13 14 16 14 12 11 12 14 16 16 16 14 15 17 18 15 14 14
13 12 12 12 11 10 10 11 12 11 11 12 12 12 12 12 12 12 12 13 12 13 14 13 12 11 13 14 15 15 18 16 13 13 15 17 20 19
Wind_Direction
235 225 249 261 258 270 276 284 294 299 301 279 268 272 288 295 308 293 288 274 291 290 288 283 274 262 255 251 246 243 240 239 239 241 241 240 238 235
244 254 256 259 257 258 262 266 271 282 290 297 291 291 309 302 279 282 280 268 256 254 262 271 273 270 262 257 254 249 245 243 241 240 241 241 241 240
235 236 242 259 262 263 256 259 262 267 277 284 288 286 280 282 291 285 278 272 264 225 235 256 265 266 263 259 257 254 250 248 245 244 242 241 241 240
238 239 244 244 244 257 262 263 264 266 271 281 286 285 279 277 276 279 277 272 274 235 222 246 257 259 260 259 257 255 254 252 250 247 245 243 241 240
240 241 244 246 247 250 252 260 264 262 264 274 279 283 280 276 278 273 271 267 271 262 231 235 241 247 253 254 255 253 253 253 252 251 249 247 245 242
241 243 245 245 246 250 250 251 258 266 264 266 272 276 274 273 269 273 274 262 263 271 268 258 240 235 243 246 248 249 250 250 250 250 250 250 249 247
242 243 244 244 252 252 257 257 256 259 265 267 270 274 275 278 276 278 280 282 271 265 268 266 255 247 240 235 236 239 242 245 248 249 249 250 250 249
246 246 246 235 233 230 241 251 257 257 262 269 271 273 276 276 276 277 279 278 278 270 268 270 268 265 260 257 235 220 229 241 248 250 251 251 250 249
249 249 252 249 232 241 232 228 238 242 245 255 265 269 274 272 275 273 270 274 279 285 282 275 271 267 263 259 226 221 231 241 248 251 252 252 252 250
250 250 251 255 249 244 249 247 245 241 235 237 249 257 262 268 266 266 273 271 267 261 259 267 270 268 268 264 234 219 231 240 246 248 250 251 252 251
251 251 250 252 244 228 245 253 255 254 244 234 240 249 260 262 259 262 263 264 267 266 254 258 267 269 269 266 254 221 225 235 240 244 246 247 249 249
253 251 245 242 245 220 239 249 254 256 259 251 232 238 246 245 233 238 251 258 264 268 264 257 263 269 271 265 260 251 236 232 233 237 239 240 240 242
263 261 257 223 224 224 231 246 252 257 262 260 256 249 244 243 238 231 235 246 256 261 264 261 264 265 266 271 270 263 258 257 244 238 232 230 227 226
266 268 270 245 223 225 230 241 244 247 255 257 255 253 249 246 243 239 236 239 246 256 266 269 267 266 269 271 271 268 260 255 255 256 252 226 219 224
264 269 275 272 253 245 238 235 235 241 246 249 250 251 252 252 251 245 242 241 245 250 253 251 252 256 258 262 266 267 266 261 253 253 252 248 241 231
263 266 255 250 248 256 258 239 236 242 243 246 249 251 252 250 245 245 246 245 246 248 243 242 243 249 254 257 261 264 263 263 260 254 252 251 247 243
297 278 271 266 259 253 250 247 243 240 238 243 248 250 250 248 248 246 246 248 250 254 255 245 237 237 244 253 257 258 259 259 258 257 252 254 251 247
279 271 269 267 264 262 260 256 249 245 244 243 244 245 246 247 248 245 243 244 248 252 256 258 253 247 245 245 238 252 256 258 257 252 249 252 253 248
258 263 265 266 266 264 262 260 258 254 248 245 245 245 245 246 246 246 245 244 246 249 253 255 252 249 251 255 246 221 241 254 256 253 249 247 252 253
260 265 269 270 269 268 267 265 262 259 252 248 247 247 245 244 244 243 243 245 248 251 253 252 249 247 249 258 267 256 225 242 252 253 253 252 252 252
282 279 278 277 275 273 270 267 265 263 260 255 251 248 245 243 243 244 245 243 246 251 252 253 253 250 255 259 261 261 252 226 235 248 255 257 256 252
288 285 283 281 278 274 271 268 264 261 260 256 253 249 245 243 243 245 247 248 245 247 252 256 256 251 249 250 254 261 264 254 233 232 242 251 256 256
292 289 287 284 279 275 272 267 264 262 260 258 255 250 245 243 244 246 248 249 250 252 255 258 258 253 251 251 255 259 263 262 254 247 241 228 231 245
Height
1562 1561 1562 1562 1562 1562 1562 1562 1562 1560 1559 1558 1558 1557 1555 1555 1553 1552 1551 1550 1550 1550 1551 1551 1551 1551 1552 1553 1554 1555 1556 1558 1560 1562 1564 1567 1569 1572
1559 1559 1559 1560 1560 1559 1559 1559 1559 1559 1557 1556 1555 1555 1552 1551 1550 1548 1547 1546 1545 1546 1546 1546 1546 1546 1547 1547 1548 1549 1550 1552 1553 1555 1557 1559 1561 1564
1557 1557 1556 1556 1557 1557 1556 1556 1556 1555 1554 1553 1552 1551 1548 1546 1546 1545 1544 1543 1543 1541 1540 1541 1541 1541 1541 1542 1543 1543 1544 1545 1547 1548 1549 1551 1553 1556
1554 1554 1554 1554 1553 1553 1553 1553 1552 1551 1550 1549 1548 1547 1545 1543 1541 1539 1539 1539 1538 1537 1535 1535 1535 1535 1536 1536 1536 1537 1538 1539 1540 1541 1542 1544 1546 1547
1551 1550 1550 1550 1549 1549 1548 1549 1548 1548 1546 1545 1544 1543 1541 1540 1538 1536 1535 1533 1533 1533 1531 1529 1529 1529 1529 1529 1530 1530 1531 1532 1533 1534 1535 1536 1537 1539
1546 1546 1546 1546 1545 1545 1544 1543 1543 1543 1542 1541 1539 1538 1537 1535 1534 1532 1531 1530 1529 1528 1527 1525 1524 1522 1522 1522 1523 1523 1524 1524 1525 1526 1527 1528 1529 1531
1542 1542 1541 1541 1540 1540 1540 1540 1539 1538 1538 1537 1535 1534 1533 1532 1530 1529 1527 1526 1524 1523 1522 1521 1520 1518 1517 1516 1515 1516 1517 1517 1518 1519 1519 1520 1521 1523
1537 1537 1536 1535 1534 1534 1534 1533 1533 1533 1532 1531 1530 1529 1528 1527 1525 1524 1523 1521 1520 1519 1517 1515 1515 1513 1512 1512 1510 1509 1509 1510 1511 1511 1512 1513 1513 1514
1531 1531 1531 1531 1529 1528 1527 1526 1526 1525 1525 1524 1523 1522 1522 1521 1520 1518 1517 1516 1514 1513 1512 1509 1509 1507 1506 1505 1504 1503 1502 1502 1503 1503 1504 1504 1505 1506
1525 1524 1524 1523 1523 1522 1522 1521 1519 1518 1518 1517 1515 1514 1515 1514 1513 1512 1511 1509 1507 1506 1505 1503 1502 1501 1500 1499 1497 1495 1495 1495 1495 1495 1495 1496 1497 1498
1518 1517 1517 1516 1516 1515 1515 1513 1512 1512 1511 1509 1508 1507 1507 1506 1506 1505 1504 1504 1501 1501 1500 1498 1496 1494 1493 1491 1490 1488 1487 1486 1486 1487 1487 1488 1489 1489
1511 1510 1509 1508 1508 1507 1507 1506 1505 1504 1504 1503 1501 1499 1498 1497 1497 1496 1496 1496 1495 1493 1493 1492 1490 1489 1486 1485 1484 1483 1481 1479 1478 1478 1479 1480 1481 1481
1504 1503 1502 1501 1500 1499 1498 1497 1496 1497 1496 1495 1494 1492 1491 1489 1488 1488 1487 1487 1487 1486 1486 1486 1484 1482 1481 1479 1478 1477 1476 1475 1473 1472 1471 1471 1472 1473
1495 1494 1494 1493 1491 1490 1489 1488 1488 1488 1487 1486 1485 1484 1483 1482 1481 1481 1479 1478 1477 1477 1477 1477 1476 1475 1474 1472 1471 1470 1469 1468 1467 1466 1465 1465 1464 1464
1486 1485 1484 1483 1481 1480 1479 1478 1478 1477 1476 1476 1475 1474 1474 1474 1473 1472 1471 1469 1468 1467 1467 1467 1466 1466 1466 1465 1463 1463 1462 1461 1460 1459 1458 1458 1458 1457
1477 1475 1474 1472 1470 1469 1468 1467 1466 1466 1466 1465 1465 1465 1465 1464 1463 1463 1462 1462 1460 1459 1458 1457 1456 1457 1456 1456 1455 1454 1454 1453 1453 1452 1451 1450 1450 1450
1469 1466 1465 1463 1461 1459 1458 1457 1456 1455 1454 1454 1454 1454 1454 1454 1454 1454 1453 1453 1452 1451 1450 1450 1449 1447 1446 1447 1446 1445 1445 1444 1444 1444 1443 1442 1442 1441
1459 1456 1455 1454 1452 1450 1448 1447 1446 1445 1444 1444 1443 1443 1444 1444 1444 1444 1444 1443 1442 1441 1441 1441 1441 1440 1439 1437 1437 1436 1436 1436 1435 1435 1435 1434 1433 1434
1449 1447 1445 1443 1442 1440 1438 1437 1436 1435 1434 1434 1433 1433 1433 1434 1434 1434 1434 1434 1433 1432 1432 1432 1432 1432 1431 1428 1427 1427 1427 1427 1427 1426 1426 1426 1425 1426
1440 1438 1436 1434 1432 1430 1429 1427 1426 1425 1425 1424 1424 1424 1424 1424 1424 1424 1424 1424 1424 1424 1423 1423 1423 1423 1422 1421 1420 1420 1419 1418 1418 1418 1418 1418 1417 1417
1433 1430 1428 1425 1423 1421 1420 1418 1417 1416 1415 1415 1415 1414 1415 1415 1415 1415 1415 1415 1415 1415 1415 1414 1414 1415 1414 1414 1412 1410 1411 1410 1409 1410 1410 1410 1410 1410
1426 1423 1420 1417 1415 1413 1411 1409 1408 1407 1406 1406 1406 1406 1406 1406 1406 1406 1407 1407 1407 1407 1407 1406 1407 1407 1406 1405 1403 1402 1402 1402 1401 1400 1401 1401 1401 1402
1418 1415 1413 1410 1408 1405 1403 1402 1400 1399 1399 1398 1398 1398 1398 1398 1398 1398 1398 1399 1399 1399 1399 1398 1398 1398 1397 1397 1396 1394 1393 1393 1393 1392 1391 1391 1392 1393